Wind_Speed
19 19 20 21 21 21 21 20 19 19 19 19 19 19 19 19 19 19 19 19 19 19 20 21 21 22 23 23 24 24 25 25 26 26 26 26 27 27 27 27 27 27 28
20 21 21 22 22 21 21 20 20 19 18 18 19 19 20 20 19 20 20 20 20 21 21 22 23 24 24 25 26 26 27 27 28 28 28 28 28 28 28 29 29 29 28
21 22 22 22 22 21 20 20 20 19 19 19 19 19 20 20 20 20 20 21 21 21 22 23 24 25 26 26 27 27 28 28 29 30 30 30 30 29 30 30 30 30 30
21 22 21 21 21 20 20 19 19 18 19 19 19 19 19 20 20 20 20 21 22 22 23 24 24 25 26 27 28 28 28 29 30 31 32 32 32 31 31 31 31 31 31
22 22 22 20 20 19 19 19 19 19 20 20 19 19 19 19 19 20 21 21 22 22 23 24 25 25 25 26 27 28 28 29 31 32 33 33 34 34 34 33 33 34 33
22 22 21 20 20 19 19 19 19 20 20 20 20 20 20 20 20 20 21 21 22 23 23 24 25 25 25 25 26 26 28 29 30 32 33 33 34 35 35 36 35 35 36
21 21 20 20 20 19 19 19 20 20 20 20 20 20 20 21 20 21 21 21 22 23 23 24 24 25 25 26 26 27 27 28 29 31 32 33 34 34 35 35 35 36 36
21 20 19 20 19 19 19 19 19 20 20 20 20 20 21 20 21 21 21 22 23 23 23 24 24 24 25 25 26 26 26 27 28 29 31 33 34 35 35 36 36 36 37
20 20 19 20 20 20 20 19 20 20 20 20 21 21 21 21 21 22 22 23 23 24 24 24 24 24 24 24 25 26 27 28 28 28 29 31 33 34 35 36 37 37 37
21 20 21 22 21 20 20 20 21 21 21 21 22 22 22 22 22 22 23 23 24 24 24 24 24 24 24 24 25 25 26 26 27 28 29 30 31 32 34 35 35 35 36
22 21 22 21 20 20 19 20 21 21 22 23 23 23 23 23 23 23 23 23 24 24 25 25 25 25 25 25 25 24 25 26 27 28 29 29 31 31 33 34 34 34 35
22 22 22 21 21 20 20 20 21 22 22 23 23 23 23 23 24 23 24 24 25 25 25 25 25 25 24 24 25 25 25 26 27 28 28 29 30 31 32 33 34 34 34
21 22 21 20 21 21 21 22 22 23 23 23 23 23 23 23 24 24 24 24 24 25 25 25 25 25 25 25 25 25 25 26 27 27 27 28 28 29 31 32 33 34 34
21 22 21 21 21 22 22 23 23 23 23 23 23 23 23 24 25 24 24 24 24 24 25 25 25 25 26 26 26 26 26 26 26 27 27 27 28 29 30 31 32 33 34
21 21 21 21 22 22 22 23 23 23 23 23 23 23 24 24 25 25 25 26 25 25 25 26 26 27 27 28 27 26 27 27 27 26 26 27 28 29 30 31 32 33 34
20 20 20 20 21 22 22 23 22 22 22 22 22 23 24 25 25 25 25 25 26 26 26 26 27 28 28 28 27 27 27 26 26 26 26 27 28 29 30 31 33 34 34
19 18 18 19 19 21 22 21 21 21 22 22 23 23 24 24 25 26 26 26 27 27 28 27 28 28 28 28 27 26 26 26 26 26 27 28 28 29 30 30 32 33 34
17 17 18 18 19 20 20 20 20 21 22 22 23 24 24 24 25 26 26 27 27 27 28 27 28 28 28 27 27 26 26 26 26 26 27 27 28 28 29 30 31 32 34
16 17 17 18 18 19 20 20 20 21 22 23 24 24 25 25 25 26 27 27 27 27 27 27 27 27 26 26 27 27 26 27 27 26 27 27 28 28 29 30 32 33 34
16 17 17 17 18 19 19 20 20 21 22 23 23 24 24 25 25 26 27 27 27 27 27 27 26 26 26 26 27 27 27 27 27 27 27 28 28 29 29 30 30 32 33
14 16 17 17 18 18 19 20 21 21 22 22 23 24 24 25 26 27 28 28 27 27 26 26 27 27 26 27 27 27 27 26 27 28 27 28 28 28 28 28 29 30 32
14 15 16 16 18 18 19 20 20 21 22 23 23 23 24 25 26 27 28 27 27 27 27 27 27 26 26 27 28 28 28 27 27 27 28 27 27 26 27 28 27 28 29
13 14 15 16 17 18 18 19 19 20 21 22 22 23 24 26 26 26 26 26 27 27 27 27 26 26 26 27 28 28 28 29 27 27 27 26 25 25 25 25 26 27 28
13 14 15 16 17 17 18 19 20 20 21 22 23 24 25 25 26 26 26 26 26 26 26 26 27 27 27 27 27 27 27 26 26 26 25 25 25 24 23 24 25 25 26
13 14 14 16 16 18 19 20 20 21 22 23 24 25 26 27 27 26 26 25 25 25 26 26 27 27 27 27 27 26 26 26 26 25 25 24 24 23 22 23 23 23 24
13 14 15 16 16 18 19 20 20 21 22 23 25 26 26 27 26 26 25 25 25 26 26 27 26 26 26 26 26 26 26 26 26 25 24 24 23 22 22 22 22 22 22
Wind_Direction
293 293 296 297 296 297 297 296 296 297 295 291 289 288 289 284 283 282 281 280 278 278 276 273 271 271 269 268 265 262 260 259 256 255 253 252 252 252 252 252 248 247 246
294 295 296 296 296 296 296 297 298 299 295 293 292 292 292 288 284 282 282 282 280 280 280 278 273 272 271 268 267 264 260 258 257 256 255 254 254 253 252 252 252 250 247
295 298 296 295 295 295 296 297 297 297 296 296 295 294 292 289 286 286 285 284 283 282 283 282 279 275 274 272 270 267 264 260 257 255 255 254 254 253 253 252 253 251 249
296 297 298 298 297 295 297 300 299 298 298 298 296 295 294 294 290 288 288 288 286 285 284 284 282 278 276 275 273 270 266 263 260 257 255 254 254 253 253 252 251 251 250
296 298 300 300 300 298 298 299 298 300 300 299 297 296 295 297 295 291 289 290 289 289 288 288 286 280 278 277 275 272 268 264 262 259 257 255 254 254 253 252 251 251 251
296 296 298 299 299 298 298 296 294 298 301 300 298 298 297 297 296 294 292 291 292 292 291 290 287 282 280 279 276 274 271 268 264 261 259 257 256 256 255 253 252 252 251
294 295 297 300 298 296 297 296 297 297 299 300 300 299 298 297 295 294 293 293 293 293 293 291 288 284 281 280 278 275 273 272 268 263 259 258 257 257 256 254 253 253 252
294 295 297 299 299 297 296 297 299 301 302 301 300 299 299 298 295 294 294 294 293 293 294 295 293 288 285 282 280 278 274 272 271 266 262 260 258 258 257 255 254 253 252
297 298 298 298 298 298 297 296 299 300 301 302 300 300 299 297 295 295 295 295 296 294 295 295 293 291 287 283 280 279 276 272 269 268 265 263 261 259 257 256 255 253 252
297 297 296 297 295 295 295 297 299 299 300 302 302 299 299 298 295 295 295 296 296 296 296 296 295 293 290 285 282 279 277 275 272 269 267 265 263 261 258 257 255 254 252
295 297 296 298 299 296 296 298 300 300 300 301 302 301 298 298 298 297 296 296 295 296 296 296 295 294 292 287 283 282 278 275 274 273 270 267 265 262 260 257 256 254 254
295 294 295 296 297 297 298 299 300 301 302 303 302 300 299 299 301 300 298 298 297 297 297 296 295 294 292 289 285 283 281 277 276 274 271 269 265 263 260 258 257 255 254
295 295 295 296 296 296 297 300 301 301 301 301 302 301 300 301 300 300 300 298 296 295 295 294 294 293 293 291 288 284 282 280 278 276 273 271 267 265 262 259 258 256 256
294 295 295 296 297 298 298 300 301 301 301 300 301 301 301 300 300 301 301 300 297 295 294 294 294 294 294 294 291 287 283 281 278 277 275 273 269 267 264 262 260 258 256
295 294 295 295 296 297 299 301 302 302 301 301 300 300 300 299 300 300 300 301 300 297 296 294 294 294 295 295 294 291 288 283 280 279 278 275 272 270 268 265 262 259 257
294 294 293 294 296 298 300 302 303 304 303 301 299 299 300 300 300 301 301 302 302 299 297 295 294 293 294 294 294 293 290 287 283 281 278 275 273 272 270 268 264 260 258
295 294 295 297 298 300 301 301 303 305 305 304 302 301 303 303 301 302 302 301 301 300 298 296 294 293 293 293 293 292 290 287 284 280 278 277 276 274 272 269 266 263 260
297 297 298 299 300 302 302 303 304 306 307 306 305 305 304 304 305 305 304 302 300 300 299 297 293 292 293 293 292 291 290 288 285 282 279 278 277 275 273 269 267 265 263
302 302 300 300 302 304 305 307 306 307 307 307 307 307 306 306 307 307 306 304 302 301 300 300 296 293 292 292 291 291 291 290 288 284 282 280 277 277 274 271 269 266 263
301 301 301 300 302 305 308 309 309 309 309 311 311 311 310 309 308 308 307 306 304 302 301 300 299 297 294 294 293 291 290 290 289 285 284 281 279 277 275 271 269 268 264
300 299 303 305 307 309 308 308 310 311 311 312 314 314 314 313 312 311 309 307 305 304 303 302 299 297 296 295 293 291 291 291 290 287 285 283 282 278 275 272 270 269 265
302 307 312 313 314 314 314 313 314 313 314 315 317 317 317 317 316 313 311 310 308 306 305 305 303 300 299 297 295 292 291 291 289 287 285 284 283 280 277 275 272 269 266
309 315 318 319 319 319 319 319 319 317 318 320 321 321 320 319 318 316 314 312 310 308 308 306 306 304 303 301 298 295 292 290 289 289 287 286 284 282 278 276 275 273 269
316 318 319 320 320 321 322 322 321 320 319 320 321 321 320 320 319 318 316 315 314 313 311 309 307 305 303 302 300 298 297 293 289 288 288 288 286 283 281 279 277 273 269
322 322 323 323 324 324 324 324 323 322 323 323 323 323 323 322 321 320 318 317 316 315 314 312 310 308 305 304 303 300 296 294 291 289 288 288 287 287 284 282 278 275 273
326 327 328 327 328 327 328 328 326 326 325 325 325 325 325 325 323 321 321 320 318 316 315 314 312 310 308 307 305 301 299 296 293 290 288 289 289 288 286 283 277 274 272
Height
5843 5842 5841 5839 5839 5838 5837 5836 5834 5833 5832 5831 5831 5830 5829 5828 5828 5827 5827 5827 5826 5826 5826 5826 5826 5826 5826 5826 5827 5827 5828 5829 5830 5831 5832 5833 5835 5836 5838 5839 5841 5843 5845
5839 5838 5837 5836 5835 5834 5832 5831 5830 5829 5828 5827 5827 5826 5825 5824 5823 5823 5822 5822 5822 5821 5821 5820 5820 5820 5820 5820 5820 5821 5821 5822 5823 5824 5826 5827 5828 5830 5831 5833 5835 5837 5839
5835 5835 5833 5832 5831 5830 5829 5827 5827 5826 5825 5824 5823 5822 5820 5819 5819 5818 5817 5817 5816 5816 5815 5815 5814 5814 5814 5814 5814 5814 5814 5815 5816 5817 5818 5820 5821 5823 5824 5826 5828 5830 5832
5831 5831 5829 5828 5827 5826 5825 5824 5823 5822 5821 5820 5818 5817 5816 5815 5814 5813 5812 5811 5811 5810 5810 5809 5808 5807 5807 5806 5806 5806 5807 5807 5808 5809 5811 5812 5814 5815 5817 5819 5821 5823 5825
5828 5827 5825 5824 5823 5822 5821 5820 5819 5818 5817 5815 5814 5813 5812 5810 5809 5808 5807 5806 5805 5804 5803 5802 5802 5801 5800 5799 5799 5798 5798 5799 5800 5801 5802 5804 5805 5807 5809 5811 5813 5815 5817
5823 5823 5822 5820 5819 5818 5817 5816 5815 5814 5813 5811 5809 5808 5807 5805 5804 5803 5802 5801 5799 5798 5797 5796 5795 5794 5793 5792 5791 5790 5790 5790 5791 5792 5793 5795 5797 5799 5800 5802 5805 5807 5809
5820 5819 5818 5816 5816 5814 5813 5812 5811 5810 5808 5807 5805 5804 5802 5800 5799 5798 5797 5795 5794 5792 5791 5789 5788 5787 5786 5785 5784 5783 5782 5782 5783 5783 5784 5786 5788 5790 5791 5793 5796 5798 5800
5816 5815 5814 5813 5812 5810 5809 5808 5807 5806 5804 5802 5801 5799 5798 5797 5794 5792 5791 5790 5788 5786 5785 5783 5782 5780 5779 5778 5777 5776 5775 5775 5775 5775 5776 5777 5778 5780 5782 5784 5786 5789 5791
5812 5811 5810 5809 5808 5806 5805 5804 5803 5801 5800 5798 5796 5794 5792 5791 5789 5787 5785 5784 5782 5780 5779 5777 5775 5773 5772 5771 5770 5769 5768 5767 5767 5767 5767 5768 5769 5771 5773 5775 5777 5779 5782
5808 5807 5805 5804 5803 5802 5801 5800 5798 5796 5795 5793 5791 5789 5787 5784 5783 5782 5780 5777 5775 5774 5772 5770 5768 5767 5765 5764 5762 5761 5760 5759 5759 5759 5759 5760 5761 5762 5763 5765 5767 5770 5772
5803 5802 5801 5800 5799 5797 5796 5795 5793 5791 5790 5788 5785 5783 5781 5779 5777 5775 5774 5772 5770 5767 5765 5764 5762 5760 5758 5756 5755 5754 5753 5752 5751 5751 5751 5751 5752 5753 5754 5756 5758 5760 5763
5798 5797 5797 5795 5794 5793 5791 5790 5788 5786 5784 5782 5780 5778 5775 5773 5771 5769 5767 5765 5763 5761 5758 5756 5754 5753 5751 5749 5748 5747 5745 5744 5743 5743 5743 5743 5743 5744 5745 5747 5749 5751 5753
5794 5793 5792 5791 5790 5788 5786 5785 5783 5781 5779 5776 5774 5772 5770 5768 5765 5763 5760 5758 5756 5754 5752 5749 5747 5745 5744 5742 5740 5739 5738 5737 5736 5735 5734 5734 5734 5735 5736 5738 5739 5741 5743
5789 5788 5787 5786 5784 5783 5781 5779 5777 5775 5773 5771 5769 5766 5764 5762 5759 5757 5754 5752 5750 5748 5745 5743 5740 5738 5736 5734 5733 5731 5730 5729 5728 5727 5726 5726 5726 5726 5727 5728 5730 5731 5733
5784 5783 5782 5780 5779 5777 5776 5774 5772 5769 5767 5765 5763 5761 5759 5756 5753 5751 5748 5745 5743 5741 5739 5736 5733 5731 5729 5727 5725 5723 5722 5720 5720 5719 5718 5717 5717 5717 5717 5718 5720 5721 5723
5778 5777 5776 5775 5773 5772 5770 5768 5766 5764 5762 5760 5758 5756 5753 5750 5748 5745 5742 5738 5735 5733 5731 5728 5725 5723 5721 5719 5717 5716 5714 5713 5711 5711 5710 5709 5708 5708 5708 5709 5710 5711 5712
5774 5772 5771 5770 5769 5767 5765 5763 5761 5759 5757 5754 5752 5749 5747 5744 5741 5738 5735 5732 5728 5725 5723 5721 5718 5715 5713 5712 5710 5708 5706 5705 5704 5703 5702 5701 5700 5699 5699 5699 5700 5701 5702
5769 5768 5767 5765 5764 5762 5760 5758 5756 5754 5751 5749 5746 5743 5741 5738 5734 5731 5728 5725 5722 5718 5715 5713 5711 5708 5706 5704 5702 5701 5699 5697 5696 5695 5693 5692 5691 5691 5690 5690 5690 5691 5692
5765 5764 5763 5761 5759 5757 5755 5753 5751 5749 5746 5743 5741 5738 5735 5732 5728 5725 5721 5718 5715 5711 5708 5705 5703 5701 5698 5696 5694 5693 5691 5689 5688 5686 5685 5684 5683 5682 5681 5681 5680 5680 5681
5762 5760 5759 5757 5755 5753 5751 5749 5746 5744 5741 5738 5735 5732 5729 5726 5722 5719 5715 5711 5708 5705 5701 5698 5696 5694 5691 5689 5687 5685 5683 5682 5679 5678 5676 5675 5674 5673 5672 5671 5671 5670 5670
5758 5756 5754 5753 5750 5748 5746 5744 5742 5739 5736 5733 5730 5727 5724 5720 5716 5712 5708 5705 5701 5697 5694 5691 5689 5686 5684 5681 5679 5677 5675 5673 5671 5669 5668 5666 5665 5663 5662 5661 5661 5661 5660
5755 5753 5751 5749 5747 5744 5742 5739 5737 5734 5731 5728 5725 5722 5718 5714 5710 5706 5702 5698 5694 5690 5687 5684 5681 5678 5676 5673 5670 5668 5666 5664 5663 5662 5659 5657 5655 5654 5653 5652 5652 5651 5651
5752 5750 5748 5746 5743 5741 5738 5736 5733 5730 5727 5724 5720 5717 5713 5708 5704 5700 5696 5691 5687 5683 5680 5677 5674 5671 5668 5665 5662 5660 5657 5655 5653 5652 5650 5648 5647 5646 5644 5643 5642 5641 5641
5750 5748 5745 5743 5740 5738 5735 5732 5729 5726 5722 5719 5715 5711 5707 5703 5699 5694 5690 5685 5681 5677 5673 5670 5667 5664 5660 5657 5654 5652 5649 5647 5645 5643 5641 5640 5638 5637 5636 5634 5633 5632 5632
5747 5745 5743 5740 5738 5735 5732 5728 5725 5722 5718 5714 5711 5706 5702 5697 5693 5688 5684 5680 5676 5672 5668 5664 5660 5656 5653 5649 5646 5643 5641 5639 5637 5635 5633 5631 5630 5629 5628 5626 5625 5624 5623
5745 5743 5740 5738 5735 5732 5728 5725 5721 5718 5714 5711 5706 5702 5697 5692 5687 5683 5679 5675 5671 5667 5662 5658 5654 5650 5646 5643 5639 5636 5633 5631 5629 5627 5625 5623 5622 5621 5620 5618 5617 5616 5616